Theta_e
323 324 324 325 326 327 328 328 327 328 328 328 329 329 329 327 327 325 326 326 324 321 321 321 321 322 325 324 323 325 325 326 326 327 326 326 327 326 326 326 326 327 328 328 329 329 329 329 330 329 330 330 330 330 332 332 333 332 331 333 329 329 330 332 332 331 326 325 329 329 330 330 332 334 329 330 330 331 330 329 328 328 332 334 338
322 322 323 325 324 326 327 326 326 324 325 326 326 327 326 324 323 323 324 325 325 325 324 323 324 322 321 321 320 321 322 322 323 325 325 325 326 325 325 325 325 326 327 328 328 327 327 326 327 326 327 327 328 328 329 330 331 331 330 328 328 326 327 328 329 328 323 321 321 322 324 326 329 331 331 328 329 329 330 329 330 328 329 331 336
322 323 324 323 323 323 324 324 323 322 322 323 323 323 323 322 324 325 324 323 323 324 323 324 326 328 326 325 325 323 325 326 324 324 325 324 324 324 325 325 324 323 324 325 325 325 326 325 325 325 326 325 324 324 325 326 328 329 329 327 324 325 325 328 329 329 321 323 323 320 317 318 323 324 332 330 328 328 330 328 329 329 330 331 334
321 322 322 322 324 324 323 322 322 321 321 322 322 321 322 323 323 323 323 323 323 324 324 325 326 327 327 325 325 324 323 324 325 324 324 323 323 324 323 324 323 322 322 322 323 324 324 324 325 324 324 324 322 322 322 322 324 326 326 326 326 321 320 324 328 328 326 323 316 316 317 317 313 318 321 324 325 327 329 327 327 326 328 328 331
321 322 322 322 323 323 322 321 321 320 319 321 322 321 322 322 323 323 322 323 324 325 326 326 326 326 326 326 326 324 322 321 320 319 321 322 322 322 321 322 321 321 322 322 321 322 322 323 323 323 323 323 323 321 321 321 321 322 324 324 323 321 318 320 324 326 326 327 321 317 315 313 314 316 318 319 324 322 322 323 328 328 330 329 328
322 321 321 323 323 323 322 321 320 319 320 321 323 323 323 322 323 323 322 322 323 325 326 325 323 321 320 318 317 317 316 317 315 316 317 319 318 322 321 320 320 320 320 320 320 321 321 321 322 321 322 322 322 320 321 320 321 322 322 323 321 322 321 318 318 323 323 325 325 322 323 316 314 317 316 312 322 321 323 323 324 324 329 329 329
323 322 321 322 322 322 322 321 321 320 321 322 323 323 322 322 323 323 323 322 323 324 324 324 322 321 320 319 318 316 315 317 318 318 318 318 320 321 319 321 319 319 320 319 319 319 319 320 321 320 320 320 321 320 319 320 317 319 321 321 321 321 322 317 319 318 321 322 322 321 322 322 320 317 313 315 312 317 320 321 322 323 325 327 327
319 320 321 322 322 322 320 320 322 321 322 322 322 322 322 323 323 323 322 321 323 324 321 323 322 321 321 319 318 317 317 317 317 318 320 319 317 318 319 319 319 319 319 319 319 318 319 319 320 320 318 318 317 317 317 319 319 320 322 322 322 322 321 319 318 318 317 317 320 319 320 319 319 319 319 316 313 312 314 319 320 321 323 324 324
319 319 320 321 322 322 320 320 322 322 322 322 321 322 323 323 322 323 323 322 322 323 321 322 323 321 320 318 317 317 318 317 317 319 318 319 318 319 319 319 319 319 319 318 319 318 318 318 319 319 318 317 317 317 318 318 319 320 320 320 321 320 321 321 319 317 318 316 316 318 317 317 316 317 316 317 315 312 311 313 315 319 322 322 324
319 320 321 322 322 321 321 321 321 322 323 323 323 322 322 322 322 322 322 322 323 322 321 320 321 321 320 319 317 317 318 318 318 317 318 319 317 318 318 318 317 318 320 319 319 318 319 319 317 317 318 317 317 317 318 319 319 319 320 320 320 320 320 320 319 319 318 318 318 317 315 315 316 315 315 315 315 316 311 311 313 313 313 318 322
319 319 320 322 323 321 321 321 322 323 324 323 323 322 322 322 323 322 322 322 322 321 320 319 320 319 319 319 318 317 317 317 316 317 316 317 317 317 317 317 317 317 318 319 318 318 319 319 318 317 318 318 316 316 317 317 317 319 318 319 319 320 319 319 319 320 319 318 318 316 315 314 314 312 314 315 315 314 313 313 314 314 313 313 318
318 318 318 321 322 321 320 321 322 322 323 323 323 322 322 322 323 322 322 322 322 321 321 319 319 319 320 319 318 319 318 316 316 316 315 315 316 316 316 316 317 317 317 317 319 319 319 318 319 318 317 318 316 316 317 316 318 317 317 317 318 319 320 319 319 318 318 317 318 317 315 316 317 316 315 316 315 314 313 311 310 312 313 314 316
318 317 318 319 319 319 319 320 322 322 322 322 322 322 322 322 322 322 321 322 322 321 320 320 319 318 319 319 319 319 318 318 316 315 315 316 316 316 316 313 315 315 316 316 316 318 318 318 319 318 317 317 317 316 316 316 318 319 317 317 317 317 318 319 316 318 318 316 315 317 316 316 315 315 317 316 315 316 314 311 311 312 309 310 313
317 317 317 318 318 318 318 320 320 321 322 322 323 323 322 322 322 321 321 322 322 321 320 319 319 319 320 319 318 318 317 318 318 315 315 315 315 315 314 314 313 315 316 316 317 316 317 317 317 318 318 317 317 317 317 317 317 316 318 316 317 317 319 319 318 318 318 318 319 316 316 315 316 317 317 316 315 313 311 311 311 312 312 310 312
318 317 316 317 319 320 319 319 320 320 322 322 322 322 322 322 322 321 320 322 322 321 321 320 318 319 319 319 318 319 317 317 317 317 317 315 315 315 315 315 314 315 315 316 317 316 317 317 316 316 316 316 316 317 317 318 317 316 317 318 318 317 318 318 317 318 316 315 318 317 316 316 316 316 315 316 315 315 314 313 312 308 309 310 309
318 318 318 319 320 321 320 320 320 320 322 322 321 322 322 322 322 321 321 322 322 321 321 321 320 320 319 319 319 319 318 318 317 317 317 317 317 316 316 316 316 315 316 316 316 317 316 315 315 315 315 315 316 316 317 317 317 317 316 317 316 317 317 317 317 317 317 318 317 317 315 314 316 315 316 316 316 317 316 315 313 311 307 305 308
319 319 317 319 319 321 320 320 320 320 320 321 322 323 323 322 321 321 322 322 323 322 322 322 321 319 319 319 319 318 318 317 317 317 317 319 320 318 316 315 317 317 316 316 316 317 317 316 316 315 316 316 317 317 316 317 317 316 316 315 315 316 316 316 317 317 317 316 316 316 315 314 315 316 316 317 316 317 316 315 314 312 311 308 305
320 320 319 319 319 320 320 320 320 320 321 321 323 323 324 323 322 321 322 322 323 323 323 323 321 319 319 319 318 318 318 318 318 317 318 317 316 317 317 316 316 316 316 316 317 316 316 316 316 316 316 316 317 317 316 316 316 315 316 315 315 316 315 315 316 315 317 317 316 315 316 314 316 316 316 317 317 317 315 315 314 314 313 310 308
320 320 319 318 319 319 321 320 319 321 322 321 320 323 322 324 321 323 322 323 323 324 323 324 323 321 319 319 318 317 318 318 317 318 318 316 315 315 316 316 317 317 316 316 316 314 315 314 315 314 315 315 316 316 316 316 315 315 315 314 315 316 315 314 315 316 316 316 315 314 315 314 315 315 315 316 316 315 315 314 313 314 313 314 312
320 319 319 318 319 320 320 321 318 319 319 320 321 322 322 324 323 324 324 324 324 323 324 323 323 321 320 320 320 317 317 316 317 317 317 315 314 315 315 316 317 317 316 316 315 314 314 314 314 314 313 315 314 315 315 315 315 315 314 314 314 314 312 312 312 313 313 314 313 311 311 311 313 313 313 314 313 314 315 313 313 313 313 313 313
320 320 320 319 320 320 319 320 319 319 319 320 321 322 322 323 323 324 324 323 323 324 323 323 323 321 321 319 318 318 318 318 317 317 318 316 316 316 316 317 316 317 317 316 315 314 314 314 313 313 313 314 314 314 315 315 314 313 313 313 313 312 311 311 311 312 312 312 311 311 311 311 312 312 312 311 311 311 312 312 313 312 312 312 312
323 322 321 320 320 320 319 318 319 319 319 319 320 321 320 322 322 323 324 323 323 322 322 323 323 322 321 320 320 319 318 317 317 317 317 316 316 316 317 317 317 317 317 315 314 315 315 314 313 313 313 313 313 313 314 314 313 313 313 313 312 312 311 311 311 310 311 311 312 311 310 311 312 311 312 311 310 310 310 310 310 311 310 311 313
323 323 322 322 321 320 319 318 319 319 320 321 322 321 322 323 323 324 322 323 323 323 323 323 323 322 321 321 320 319 318 318 318 317 316 316 316 317 317 316 316 316 316 316 315 315 315 314 314 314 313 313 313 313 315 314 313 312 311 312 312 311 311 311 311 310 309 310 310 310 310 311 312 312 312 312 312 311 311 309 309 310 311 311 311
323 323 324 324 323 323 320 318 318 318 320 321 324 322 322 323 323 322 323 324 323 322 322 322 323 322 321 320 320 318 318 317 316 316 317 317 317 316 316 316 315 316 315 317 316 315 315 315 314 314 314 313 313 314 314 314 313 312 312 312 312 312 311 311 311 310 310 310 309 309 310 310 311 310 310 310 310 311 310 310 310 311 310 310 311
323 323 324 325 323 321 319 318 317 318 318 321 322 321 321 323 324 322 322 323 323 323 322 322 322 322 321 320 320 319 318 318 318 317 318 317 317 317 317 315 316 316 315 315 316 315 315 315 315 313 313 313 313 313 313 313 313 314 312 312 312 311 312 311 311 311 312 311 310 310 309 309 310 309 309 309 309 310 310 309 309 309 309 309 309
323 323 324 324 323 322 320 319 318 318 318 319 321 321 321 321 322 326 325 323 323 323 323 322 322 321 319 320 320 319 318 318 317 317 317 317 318 317 316 316 315 315 316 316 316 315 315 314 314 313 314 314 314 314 313 313 313 313 313 313 313 313 313 312 311 311 311 310 309 309 309 309 308 308 308 308 309 310 309 309 309 308 308 308 308
322 323 323 325 324 324 320 320 321 321 322 322 321 320 320 321 323 324 324 324 323 324 323 322 322 321 318 318 318 318 317 318 318 318 318 317 317 317 316 314 315 315 315 315 315 314 315 314 314 314 314 314 314 314 314 314 314 313 313 312 312 312 312 312 311 311 311 311 310 310 310 310 310 309 308 308 308 309 309 309 309 308 308 308 307
321 322 322 323 324 324 325 323 323 323 323 323 322 321 320 321 321 323 323 325 325 325 322 321 321 320 319 317 318 318 317 317 317 317 317 317 317 317 317 318 317 317 316 315 314 314 315 315 315 314 315 315 314 314 314 314 314 313 313 312 312 311 310 311 312 311 311 311 311 311 310 310 310 310 310 309 309 308 308 307 307 308 308 307 306
318 320 321 322 321 323 324 325 325 325 324 323 321 320 322 323 322 321 322 324 325 323 321 320 319 319 318 318 318 317 317 318 317 316 317 317 318 318 318 318 318 318 318 317 316 316 315 315 315 315 314 315 315 315 314 315 314 313 313 311 311 310 310 309 310 311 311 312 311 311 311 311 311 311 312 311 309 308 307 306 307 307 307 306 306
317 318 319 321 321 322 323 326 326 324 323 321 321 320 319 320 321 321 322 324 323 322 319 318 317 317 317 317 316 317 316 317 316 317 316 316 316 316 317 318 317 316 316 317 317 317 316 315 315 315 315 315 315 315 315 312 311 313 311 310 310 310 309 309 309 310 311 311 312 311 312 313 313 312 311 309 306 307 309 308 307 307 306 306 305
316 318 319 320 321 322 323 323 323 323 322 321 320 320 320 320 320 321 321 322 320 320 319 317 316 316 316 316 316 316 316 315 316 316 316 316 314 316 317 317 317 317 318 318 318 316 316 316 315 315 315 315 315 315 309 300 300 301 309 310 309 308 309 309 310 310 310 310 311 311 311 311 312 313 314 308 306 305 304 304 305 306 306 306 305
314 315 317 318 319 320 321 321 321 320 320 319 320 321 319 319 320 319 321 320 319 318 316 316 315 315 315 315 315 315 315 315 315 314 315 315 316 316 316 316 317 317 317 318 317 316 316 316 316 315 314 313 313 311 300 299 299 298 302 308 308 308 309 309 310 310 310 310 310 310 310 310 310 310 310 309 309 306 302 302 301 301 302 302 303
315 314 315 316 316 317 320 320 320 318 317 319 320 319 319 319 320 320 320 319 318 317 316 315 315 315 314 316 315 314 314 315 315 316 317 317 316 316 316 316 317 318 318 316 315 316 315 314 313 311 311 312 312 305 299 299 299 298 297 302 307 308 308 309 310 310 310 310 310 310 310 310 310 312 310 309 310 309 306 302 303 303 303 300 297
317 317 315 317 317 318 319 320 321 319 319 320 321 320 320 321 320 319 318 317 315 315 315 314 314 315 315 314 314 314 314 315 316 316 317 316 316 316 317 317 316 316 316 315 315 314 313 312 312 311 311 310 310 307 299 299 298 296 296 297 307 307 308 309 309 310 311 311 310 310 309 309 310 310 310 308 308 308 307 307 307 307 306 306 303
316 316 316 318 318 319 319 320 318 318 322 321 318 320 320 319 318 316 316 315 315 314 314 315 314 314 314 315 315 315 315 316 316 316 317 315 315 315 315 315 315 314 314 312 312 312 311 311 311 310 309 309 310 302 298 297 297 296 296 298 307 308 309 310 311 312 311 311 310 309 310 309 309 309 309 309 308 307 307 306 306 306 306 306 306
315 316 317 317 317 319 319 319 320 318 316 316 317 318 317 316 316 315 315 315 314 314 314 315 314 314 315 316 316 316 316 316 315 314 314 313 314 315 314 315 313 312 312 312 311 311 310 310 310 310 309 308 309 299 297 297 296 296 295 306 307 307 307 308 309 311 310 310 309 309 309 308 308 308 307 302 304 309 307 305 304 304 305 305 305
317 317 318 321 320 318 320 319 319 317 316 317 317 316 316 315 314 314 314 314 314 314 313 314 315 316 316 317 317 316 315 314 313 312 312 313 313 313 313 313 311 310 309 309 310 310 309 309 309 309 308 308 307 303 297 296 295 295 299 305 307 306 306 307 308 309 309 308 309 308 308 307 307 307 304 299 298 304 308 305 304 304 303 304 304
314 316 317 319 320 319 320 319 318 319 319 319 319 318 316 315 315 314 314 314 313 313 315 316 316 316 317 316 315 313 312 312 312 311 312 313 312 312 312 311 309 308 308 309 309 307 308 308 307 307 307 306 307 305 297 296 295 294 299 304 305 305 306 307 307 309 308 307 307 308 309 307 307 307 301 298 295 303 307 305 304 303 302 302 303
314 315 315 317 321 321 318 320 319 318 320 321 319 318 315 314 315 315 314 314 315 316 316 316 316 316 314 314 313 313 312 312 311 311 312 310 310 310 310 310 309 309 308 307 307 306 306 307 307 307 306 306 307 305 298 295 294 294 298 300 300 302 304 305 305 305 307 307 307 307 308 306 307 306 299 298 295 302 306 305 305 303 302 302 303
314 316 319 320 319 318 317 318 318 320 320 319 318 317 317 315 315 315 315 315 316 317 316 316 314 314 313 313 313 313 313 312 310 310 310 309 310 309 310 309 308 307 306 306 306 306 306 305 306 306 306 306 305 305 303 294 295 294 293 296 298 297 298 299 298 298 301 304 305 306 305 300 296 295 296 296 295 295 306 305 304 303 303 302 304
315 320 314 316 317 317 316 317 319 319 318 319 316 317 316 317 317 316 315 316 317 316 314 313 313 312 311 312 312 312 311 311 310 309 309 309 309 308 307 307 306 306 306 305 305 305 304 303 303 304 304 304 304 302 301 294 292 292 291 293 295 294 295 294 294 296 299 301 302 303 305 302 296 295 295 294 295 294 297 305 305 304 304 304 302
320 318 319 319 316 321 320 319 320 318 317 318 317 316 315 316 316 316 315 315 314 313 312 311 311 310 311 311 311 311 311 311 310 309 309 308 308 307 306 306 306 304 304 303 303 302 301 301 302 301 302 301 302 301 300 296 292 292 291 291 293 294 294 293 293 295 296 297 300 301 303 301 295 294 293 293 293 293 292 302 303 297 296 294 304
320 319 318 317 318 319 319 320 318 318 318 317 317 316 316 316 315 314 313 312 311 311 310 310 310 310 310 310 310 311 310 310 309 308 307 306 306 306 305 305 304 303 302 302 301 301 300 299 299 299 299 299 299 300 297 300 293 291 291 291 290 292 290 294 293 293 294 296 299 301 302 300 294 293 293 293 292 292 294 300 295 294 294 293 296
320 320 320 317 318 318 318 319 318 318 317 317 318 316 315 314 312 313 312 311 310 310 310 310 310 309 309 309 309 308 309 308 307 306 306 305 304 304 303 303 302 301 299 299 298 298 297 296 296 296 296 296 298 298 296 294 295 291 290 290 290 289 290 293 294 293 295 294 297 299 297 293 292 292 292 292 292 292 295 293 293 293 292 294 300
320 319 319 317 316 319 317 317 317 318 318 317 317 316 313 312 312 311 310 309 310 309 310 309 309 309 308 307 307 306 306 307 306 305 305 303 303 303 301 301 300 299 298 296 295 295 295 295 294 294 294 295 296 296 296 295 292 291 290 290 289 289 289 290 292 295 295 295 292 291 291 292 292 292 291 291 292 292 291 291 291 291 295 300 301
318 319 319 317 318 317 317 317 317 318 317 317 316 314 311 309 310 310 310 310 310 309 309 308 308 308 307 306 305 304 304 306 306 304 304 303 302 300 299 298 297 296 295 293 293 293 293 293 292 292 293 294 295 295 295 295 293 292 291 290 289 289 291 291 291 292 291 290 290 290 291 291 293 294 299 299 299 299 295 293 292 293 301 301 301
320 318 316 318 317 317 316 315 313 314 313 312 312 310 310 310 310 310 310 309 308 308 307 307 307 305 305 305 305 303 303 305 305 304 303 303 301 299 298 297 296 294 292 292 292 293 292 291 291 291 292 293 293 293 293 293 292 291 290 290 290 291 291 291 292 292 292 292 292 292 292 291 292 292 293 293 294 295 296 298 300 302 302 302 303
320 319 318 318 317 315 313 312 310 310 310 310 310 310 310 310 310 310 309 309 308 307 307 306 305 305 304 304 304 300 302 302 303 303 301 301 301 300 298 296 295 292 290 290 291 291 290 291 290 291 291 291 291 291 292 290 289 289 289 289 290 290 290 290 289 290 290 291 292 292 292 295 297 298 298 298 299 300 299 299 300 300 300 302 302
319 319 317 317 316 313 312 310 309 309 310 310 310 310 311 311 309 309 309 308 307 305 306 306 305 304 303 303 304 303 302 301 301 302 301 301 299 299 298 297 296 294 292 291 291 291 291 291 291 290 290 290 290 290 290 288 289 288 288 288 289 288 289 289 290 289 290 291 292 292 293 292 293 293 294 295 296 299 297 300 300 299 300 303 301
319 319 318 316 314 312 310 309 309 310 309 309 309 308 308 308 308 308 308 306 305 305 305 304 304 303 301 301 303 302 301 301 300 300 299 300 294 293 295 294 293 292 290 289 289 291 291 291 290 291 292 289 289 289 288 287 287 288 288 288 288 288 288 288 288 288 289 290 291 291 291 291 292 293 292 293 294 295 295 296 299 296 300 300 301
317 316 315 313 312 310 310 309 309 309 308 308 307 307 307 307 307 307 306 305 304 304 303 303 303 302 300 301 301 302 301 301 300 299 299 297 296 295 289 289 291 291 290 289 289 288 288 289 290 290 291 288 288 287 287 287 287 288 288 287 287 287 287 287 288 288 288 289 290 291 291 291 292 293 292 292 292 292 292 293 295 298 299 298 296
Wind_Speed
6 5 6 6 6 6 5 5 6 6 6 6 7 7 7 7 7 8 6 6 6 6 6 5 5 5 5 5 5 5 5 6 6 7 7 7 8 8 8 7 7 7 7 7 7 6 6 6 7 7 7 7 6 7 8 8 7 7 7 6 7 7 6 7 8 9 9 8 8 9 9 8 7 6 8 6 5 5 6 6 7 7 6 6 6
6 6 6 5 5 5 4 4 5 6 6 6 7 7 7 8 8 7 6 6 6 6 5 5 5 5 5 6 6 6 6 6 6 6 6 7 8 7 7 7 6 6 6 6 7 7 6 6 6 7 7 6 7 7 8 8 8 8 8 7 7 7 6 8 8 10 8 9 11 9 8 7 7 5 5 5 7 7 7 7 6 6 6 6 6
6 5 5 5 5 5 5 4 5 6 6 7 7 7 7 7 6 6 6 6 6 6 6 5 5 6 6 6 5 5 6 6 6 6 6 7 7 7 7 7 7 6 7 6 5 7 7 6 6 6 7 7 6 7 8 8 8 8 9 8 8 7 6 6 8 9 9 10 9 9 8 10 7 5 2 8 9 10 6 6 6 7 7 7 5
6 6 5 5 5 4 4 5 5 6 6 7 6 6 5 6 6 6 7 7 7 6 6 7 6 6 6 7 7 7 6 5 5 6 6 6 7 7 7 7 7 7 8 7 7 7 7 7 6 6 6 7 6 6 7 8 7 7 8 8 8 8 7 7 7 8 8 9 8 8 9 8 9 6 10 9 11 7 6 8 8 8 7 8 6
6 6 5 5 5 4 4 4 5 5 5 6 5 5 5 6 6 6 7 7 7 7 7 5 5 5 4 4 5 5 6 6 6 6 6 6 6 7 7 7 8 7 7 8 7 7 7 7 7 6 6 7 7 6 7 7 7 7 7 7 8 7 8 7 6 7 7 6 7 7 7 6 8 11 13 11 6 8 11 10 7 9 9 7 7
5 5 5 5 5 4 4 4 3 5 5 5 4 4 4 5 6 7 7 7 7 8 7 7 8 7 7 6 6 6 6 6 7 7 6 7 7 6 7 7 7 7 7 7 8 7 7 7 7 7 6 6 6 6 7 7 7 8 8 7 7 7 7 8 7 6 6 5 5 5 5 7 9 11 11 10 10 10 9 9 10 10 8 10 9
5 5 5 5 4 4 4 3 4 4 4 4 4 3 4 5 6 7 7 7 6 7 8 7 7 7 8 8 7 7 7 6 6 6 6 6 6 6 6 6 7 7 7 7 7 7 7 7 7 7 7 6 6 5 6 7 8 8 8 7 8 7 7 7 8 7 7 5 6 8 8 7 9 9 9 11 12 10 9 10 9 9 10 9 9
6 6 5 5 4 4 4 4 3 4 3 3 3 3 4 5 5 6 6 7 6 6 8 7 7 7 8 8 7 7 6 6 6 6 6 6 6 7 6 6 6 7 6 7 7 7 7 7 6 6 7 7 6 6 7 7 7 7 7 7 7 7 7 7 8 7 7 7 7 8 8 9 9 9 10 10 11 13 12 10 10 10 10 10 10
6 6 6 6 5 4 4 4 5 4 3 3 3 3 3 3 4 4 5 5 6 6 6 7 6 7 7 7 7 6 6 6 5 6 5 5 6 5 5 5 5 6 7 7 7 8 8 7 6 7 7 8 7 7 7 8 8 8 7 7 7 7 6 7 7 7 8 8 8 8 9 9 9 9 10 9 9 11 12 12 12 12 11 10 9
6 5 6 6 5 4 3 4 4 3 3 2 3 2 3 2 2 2 4 4 5 6 6 7 7 6 7 7 8 7 6 5 5 5 5 5 6 6 5 5 5 5 6 6 7 7 7 7 7 7 7 7 7 7 7 7 7 7 7 7 7 8 6 6 7 7 7 7 8 8 8 8 8 8 8 9 9 10 12 13 13 15 14 10 10
5 6 5 6 5 4 4 4 4 4 3 3 2 2 2 1 1 1 2 3 4 5 5 6 6 6 6 6 7 7 7 6 6 6 5 6 6 6 6 6 5 6 5 5 6 7 6 6 6 7 7 7 7 7 7 7 7 7 7 7 7 7 7 7 7 7 7 8 8 8 8 8 8 9 9 9 10 10 11 12 13 13 14 15 12
6 5 6 7 6 5 5 5 5 5 4 4 3 3 3 3 2 2 2 2 3 4 4 5 5 5 4 5 6 5 6 6 7 6 7 7 6 6 5 5 5 5 5 5 5 6 5 6 7 7 7 7 7 7 7 8 7 7 6 6 6 7 7 7 7 7 8 7 8 8 8 8 7 8 9 9 9 10 11 12 12 12 13 12 12
7 6 6 7 6 7 6 6 6 6 6 6 5 4 4 3 3 3 2 2 2 2 4 3 3 4 3 4 4 4 6 6 7 7 6 6 5 6 6 6 5 5 5 6 6 7 6 6 6 7 7 7 7 8 8 8 6 7 6 6 7 7 7 7 7 7 8 8 8 8 8 8 8 8 8 9 9 9 10 11 11 12 13 13 13
8 7 7 7 7 7 8 8 8 7 7 7 6 5 4 3 4 2 1 1 2 1 2 2 3 2 2 3 4 5 5 6 5 6 6 5 5 5 6 6 6 6 6 6 6 7 6 7 7 6 7 7 8 8 7 7 7 7 7 7 8 7 6 7 7 8 7 8 7 8 8 8 9 8 8 8 9 10 10 11 12 11 12 13 12
8 8 7 8 8 8 8 8 7 7 8 7 6 6 5 5 4 2 1 0 1 1 0 1 2 2 3 3 4 5 5 5 5 4 5 6 5 5 5 5 5 6 6 6 6 7 6 7 7 6 7 7 7 7 6 6 6 7 6 6 7 7 8 8 8 8 8 9 9 8 8 8 8 8 9 9 9 10 10 10 11 13 12 12 12
9 8 8 8 9 8 8 8 8 7 8 7 7 7 5 4 3 2 2 2 2 2 1 0 1 1 2 4 4 5 5 5 4 4 4 4 5 5 5 5 5 6 5 5 6 6 6 6 6 6 6 6 6 6 6 5 6 6 6 6 7 6 7 9 8 8 9 9 9 8 8 8 8 9 9 9 9 9 10 10 11 11 12 13 12
9 9 8 10 9 9 9 9 8 8 8 8 7 6 6 4 4 3 4 4 4 3 3 1 0 1 2 3 4 5 5 5 4 4 4 3 3 4 4 5 5 5 4 5 5 5 5 5 5 5 5 5 5 5 5 5 6 6 6 7 7 7 7 8 7 8 8 9 8 9 9 9 8 8 9 9 9 9 9 9 9 10 10 12 12
11 10 9 10 10 10 10 9 9 9 8 7 7 6 4 4 4 5 5 5 5 4 4 2 2 1 1 2 3 3 4 4 4 5 4 4 4 4 4 4 5 4 4 4 4 4 4 4 4 4 4 4 5 4 5 5 6 6 7 7 6 7 8 7 7 8 8 8 8 9 8 8 8 8 9 9 9 9 9 10 9 9 9 11 12
10 10 9 9 9 10 10 9 9 9 8 7 7 5 4 4 5 6 6 6 5 5 4 2 3 2 1 1 2 3 3 3 3 3 3 4 4 4 4 4 4 4 4 4 4 4 4 4 3 4 4 4 4 4 5 5 6 5 6 6 6 7 8 8 7 7 7 8 9 9 8 8 8 9 9 9 9 9 9 9 9 9 10 10 11
10 10 10 10 10 10 11 10 10 9 9 8 7 5 5 5 5 6 6 6 6 6 5 5 4 3 2 2 1 3 3 4 4 4 4 4 5 5 5 5 4 4 4 4 4 5 5 5 4 4 4 4 5 4 5 6 6 5 6 6 6 8 8 8 7 7 7 7 8 9 9 8 8 8 9 9 9 9 9 9 9 9 9 10 10
10 10 10 10 10 10 10 10 10 8 7 6 5 6 6 6 6 6 7 7 7 6 6 5 4 4 3 3 2 3 3 3 3 4 4 4 4 4 4 4 4 4 5 5 5 5 5 5 6 5 5 5 5 5 5 5 6 6 6 6 7 8 8 7 7 8 7 7 7 9 9 9 9 9 8 9 9 10 9 9 9 9 9 9 10
10 9 9 9 9 10 10 9 9 8 7 7 7 7 8 7 6 6 6 6 7 7 6 6 4 4 4 4 3 3 4 3 3 4 4 4 4 4 5 5 5 4 4 5 5 4 5 6 5 6 5 5 5 5 5 5 6 7 7 5 6 8 8 8 8 8 8 7 7 9 9 9 8 9 9 10 10 9 10 10 9 9 10 10 10
9 9 9 9 9 9 9 10 9 9 8 8 7 7 7 7 7 7 7 7 6 6 6 5 5 5 5 5 4 4 4 4 4 4 5 5 5 5 5 6 6 5 5 5 6 6 6 7 7 7 7 6 7 6 5 6 6 7 8 7 7 8 8 9 10 10 10 9 10 9 10 9 8 10 10 9 9 10 9 10 11 10 11 11 12
8 8 9 9 9 9 8 9 9 9 8 8 7 7 7 7 7 7 8 8 7 6 6 6 6 6 5 5 5 4 5 5 5 4 5 6 6 6 6 6 7 6 7 6 7 8 8 8 8 8 9 9 9 8 8 8 9 8 9 9 9 9 9 9 10 11 12 12 13 13 12 11 11 12 11 11 10 10 9 10 11 11 11 12 11
8 9 10 10 10 10 9 10 10 10 8 7 7 8 7 7 7 7 8 7 7 6 6 6 6 6 6 5 5 5 5 5 5 5 6 7 7 6 6 7 7 8 8 8 8 8 9 9 8 10 10 10 10 11 11 11 10 9 10 10 10 10 10 11 11 11 13 13 13 14 14 14 13 13 12 11 11 11 11 11 12 11 11 11 10
8 9 9 10 10 9 9 10 9 8 8 7 7 7 7 8 7 6 7 7 6 5 5 6 6 6 6 6 5 6 7 6 6 6 6 7 7 7 8 8 8 9 9 9 10 9 9 10 10 11 12 12 12 11 12 12 12 12 11 11 11 12 12 13 13 14 14 14 14 15 15 15 14 14 13 12 12 13 12 12 13 12 12 11 11
8 8 8 8 9 10 10 9 8 8 6 6 6 7 7 6 6 6 6 6 5 4 5 5 6 6 6 6 7 7 6 6 6 6 7 7 8 8 9 9 9 10 10 10 11 11 10 11 12 12 13 13 14 13 13 12 12 13 13 13 13 13 14 14 15 15 16 16 16 15 15 15 15 14 14 13 13 12 11 13 12 11 12 12 12
6 8 9 10 9 9 9 9 7 7 5 6 6 7 7 6 6 6 5 5 3 4 5 5 5 5 5 7 6 6 7 7 7 7 8 8 9 9 9 9 9 10 11 12 13 13 12 11 12 13 13 13 13 14 13 13 14 14 14 14 14 14 14 15 17 16 16 17 17 17 16 16 16 15 14 13 11 9 9 10 9 10 11 12 13
8 8 8 9 9 8 7 7 6 5 6 7 7 7 6 6 6 6 5 5 4 4 4 5 4 5 5 5 6 6 6 7 8 8 9 9 9 10 10 10 10 10 9 11 12 14 14 15 14 14 15 14 13 12 11 12 14 15 15 15 15 15 15 15 15 16 16 17 18 18 18 18 17 15 12 10 10 9 9 9 9 9 10 11 12
8 8 8 8 8 8 7 6 6 6 6 7 6 7 8 7 6 5 5 4 3 3 3 3 4 4 5 5 6 6 7 7 8 9 9 10 10 10 10 10 12 12 13 13 13 13 13 14 14 14 13 12 11 10 11 12 12 12 15 14 14 14 15 15 15 15 16 16 16 17 16 19 16 15 14 13 13 14 14 11 9 8 9 10 10
5 5 5 5 6 5 5 5 5 5 5 6 7 7 6 5 4 3 3 4 3 3 3 3 4 4 5 6 6 6 7 9 9 9 10 11 12 12 11 12 12 12 12 12 11 13 12 12 13 12 12 10 9 9 11 12 13 14 11 12 13 13 14 14 14 15 15 16 16 17 18 18 18 14 13 15 16 17 17 16 14 13 11 10 10
4 3 4 5 5 5 4 4 4 5 5 4 3 4 3 3 2 3 3 2 1 1 2 2 3 4 5 7 7 7 8 9 10 11 13 13 12 12 13 13 12 12 11 10 11 11 11 10 9 10 11 10 10 10 10 11 12 13 11 11 12 12 12 13 13 14 14 14 16 16 15 14 14 16 17 16 15 18 18 17 16 14 14 15 15
2 1 2 2 3 2 2 1 2 1 1 2 1 1 1 1 2 2 3 1 1 0 1 3 4 5 6 6 7 8 9 10 12 12 11 11 12 12 12 11 11 10 9 9 10 10 9 9 10 11 11 11 11 10 11 13 14 14 14 12 11 13 13 13 14 15 15 15 15 15 15 13 13 18 16 15 16 14 16 19 16 15 15 16 17
4 3 2 3 3 3 4 5 5 5 5 5 4 4 4 3 3 2 1 1 0 1 1 3 4 6 6 7 8 9 11 11 12 12 11 11 11 10 9 9 8 9 8 9 9 9 9 9 10 11 11 12 13 12 12 14 15 15 16 13 12 14 14 14 15 15 15 16 16 16 15 15 15 17 16 16 16 16 16 13 12 12 12 14 17
6 6 6 7 7 7 7 6 5 7 5 5 5 4 4 4 3 3 2 1 1 2 2 3 5 6 7 8 10 11 11 11 11 11 10 10 9 9 9 8 8 8 8 8 9 9 10 10 11 12 12 12 11 12 12 14 14 15 16 15 14 13 13 13 14 14 16 16 16 16 17 17 17 16 15 16 17 17 16 14 13 12 12 12 14
7 8 8 7 8 7 7 7 6 6 5 5 6 4 3 4 3 3 2 1 2 3 4 5 6 8 9 9 9 10 10 9 9 9 9 9 9 9 9 7 8 8 8 9 9 10 12 12 12 12 12 12 11 13 12 13 14 14 16 13 13 14 14 15 15 15 16 15 16 17 17 17 17 17 18 17 15 15 16 16 15 13 12 13 13
7 8 8 7 7 8 8 7 6 5 5 5 4 4 3 3 2 2 2 2 2 4 6 6 7 7 8 8 8 8 8 8 9 9 10 10 9 9 8 7 9 9 10 11 11 11 12 12 13 12 12 12 13 12 11 12 12 14 15 14 14 13 14 15 15 15 15 16 15 17 17 17 17 18 17 17 13 13 14 15 14 14 13 13 14
9 8 8 7 7 6 6 5 6 5 5 4 3 2 1 1 1 2 2 4 5 6 6 6 6 7 7 6 6 7 8 8 9 9 9 8 8 8 8 8 10 11 11 11 11 12 11 11 12 12 11 12 12 12 10 9 11 12 14 14 13 14 15 15 16 17 17 17 19 18 17 17 18 17 16 14 10 10 13 15 15 15 15 15 15
7 6 7 6 5 4 4 5 3 4 4 3 2 1 2 2 2 3 4 5 5 5 5 5 6 6 5 5 6 7 7 8 8 8 8 9 9 8 9 9 10 11 11 11 11 11 11 11 11 12 12 13 12 12 12 11 11 14 16 15 14 14 15 15 16 17 17 16 18 18 18 17 18 18 17 13 11 12 13 13 13 15 15 15 14
6 5 4 4 3 4 3 3 3 4 3 3 1 1 2 3 4 4 3 4 4 4 5 4 5 5 5 6 5 6 6 7 8 8 8 9 8 9 10 10 10 10 11 11 11 11 12 11 12 12 11 12 13 13 14 12 14 16 18 16 14 15 16 17 17 17 17 16 17 18 20 18 16 13 15 14 12 12 12 12 13 13 14 15 12
5 4 2 2 3 0 1 2 3 2 1 1 1 1 3 2 3 3 3 4 4 4 5 5 4 5 6 6 6 6 7 6 7 8 8 9 8 9 10 10 10 10 10 11 11 11 11 12 12 12 12 12 11 14 16 12 16 17 18 19 15 15 16 16 16 16 15 16 16 15 17 19 17 15 13 14 14 13 13 12 12 12 13 11 7
4 4 1 1 1 2 1 2 3 1 1 1 0 1 1 2 2 5 5 5 5 5 5 5 6 6 7 6 6 6 5 5 6 8 9 9 9 10 10 10 9 11 12 12 12 12 12 12 12 12 12 13 13 16 16 12 17 18 20 22 17 17 17 18 18 16 16 16 16 16 16 16 14 17 18 14 13 10 11 9 12 15 15 12 10
4 4 3 1 2 1 1 1 1 1 0 0 0 0 2 4 6 6 6 6 6 5 6 6 6 6 6 6 5 5 6 6 7 8 9 9 9 10 11 10 11 12 12 13 13 13 13 13 13 12 12 13 14 13 14 11 14 18 21 20 19 18 22 19 17 18 18 16 16 17 17 19 22 24 24 21 18 16 10 11 15 15 14 13 9
2 1 2 1 1 0 1 2 1 1 0 1 1 2 5 8 8 6 6 6 6 6 6 5 5 5 6 5 7 7 7 8 9 9 9 9 10 10 10 10 11 12 12 13 12 13 13 13 13 13 13 13 13 13 14 12 16 19 18 18 19 20 21 19 19 17 17 18 17 17 19 25 24 25 23 21 18 18 13 16 17 14 14 11 10
2 2 2 0 1 1 1 3 3 3 2 2 3 7 9 9 7 6 6 6 5 5 5 5 5 5 6 7 8 8 8 8 9 9 9 9 10 11 11 11 11 12 12 13 13 13 13 13 13 14 13 13 13 13 13 13 16 18 21 20 20 22 21 20 19 18 18 18 21 25 24 21 22 23 24 19 17 18 20 19 18 18 15 11 12
1 2 2 2 3 3 4 6 6 6 5 6 8 9 10 8 7 6 6 5 5 5 5 5 5 6 7 8 8 9 9 7 8 8 8 8 9 10 11 11 11 12 12 12 13 13 12 13 13 13 13 14 14 13 13 15 18 23 23 23 23 21 22 22 22 20 22 24 23 23 25 25 22 20 15 14 14 13 12 14 14 11 9 11 11
4 5 4 4 5 6 7 8 9 8 8 9 10 9 8 7 7 6 6 6 6 5 5 6 7 7 7 8 7 8 8 7 8 8 8 9 9 10 11 11 11 12 12 12 12 12 12 13 13 13 14 14 14 14 16 17 17 18 18 20 20 19 21 20 17 17 18 18 21 22 21 24 24 26 23 19 17 20 18 14 10 8 9 10 11
6 6 6 7 7 8 9 9 9 8 8 9 9 8 7 7 6 6 5 5 5 6 6 7 7 7 7 7 6 6 7 8 8 8 9 8 9 10 10 10 11 11 12 11 12 11 12 13 14 13 14 14 15 16 16 18 20 20 20 19 19 19 19 18 18 17 19 21 20 20 19 16 15 15 12 10 10 11 12 12 9 8 9 7 6
8 7 7 7 9 10 10 10 9 8 9 9 9 8 7 7 6 5 5 5 5 6 6 7 6 6 7 7 6 7 7 8 8 8 8 8 9 9 9 9 10 10 10 10 11 10 12 13 13 14 16 16 16 16 17 21 21 23 22 22 20 20 21 20 22 27 22 19 17 16 14 14 14 14 12 10 11 11 9 11 8 7 8 5 6
8 8 9 10 10 11 11 10 9 8 8 8 8 7 6 6 6 5 6 6 6 5 5 6 6 6 8 7 6 7 8 8 8 8 9 9 4 6 6 7 8 10 8 8 8 9 11 12 13 13 14 16 17 18 24 26 26 27 26 26 26 28 27 24 27 29 22 17 15 15 13 13 12 11 10 11 10 10 10 10 7 7 5 6 4
10 11 10 10 11 11 11 10 8 8 8 8 7 6 6 5 6 6 6 7 7 5 5 5 6 6 6 7 7 7 8 8 8 9 9 9 9 3 10 7 7 5 6 7 6 6 7 9 12 14 15 17 18 22 25 27 29 27 27 29 28 28 29 27 26 20 17 14 14 13 12 12 11 13 12 11 11 10 9 9 10 7 5 5 8
Wind_Direction
102 101 92 88 92 87 84 80 81 81 75 76 77 74 70 75 77 68 60 50 46 51 45 40 50 66 62 59 60 57 53 60 54 42 41 40 29 26 24 22 24 24 22 25 21 22 19 22 20 17 11 19 12 14 9 4 4 0 354 344 342 344 339 344 356 331 318 318 321 310 309 299 303 293 306 297 302 312 318 321 309 300 295 310 315
132 114 105 103 94 92 83 87 91 86 80 76 77 76 74 74 74 75 68 62 56 52 56 48 39 39 38 42 42 40 42 40 43 44 39 41 28 25 19 11 12 26 25 28 29 21 21 20 19 21 11 15 11 10 8 4 3 2 358 351 347 346 342 355 356 340 339 337 327 325 307 317 309 293 296 320 321 313 309 293 287 299 313 304 302
120 110 103 99 94 88 85 81 86 94 97 93 90 92 90 83 75 72 69 66 59 48 47 49 48 38 37 41 37 72 56 40 45 39 40 40 32 24 28 21 12 22 20 28 27 27 19 16 18 17 17 9 6 11 7 5 4 1 359 358 349 343 341 3 1 0 337 336 318 317 329 324 318 295 316 325 315 303 295 290 308 308 313 311 307
138 129 109 95 93 99 102 102 101 110 113 106 96 92 89 79 79 81 77 69 63 55 56 59 56 59 59 60 57 37 36 52 55 51 49 38 42 36 36 31 31 28 25 24 35 29 21 15 14 15 16 10 2 7 5 3 0 360 0 354 359 341 346 351 357 1 352 344 337 336 319 310 311 344 331 321 308 309 312 312 298 295 297 298 312
139 134 129 121 106 87 88 102 124 113 102 96 87 77 79 81 83 79 74 66 58 49 45 47 68 74 72 74 62 62 52 45 38 46 38 43 43 40 38 35 32 33 33 28 30 33 25 19 8 11 16 9 1 359 2 356 354 350 5 353 355 354 338 337 339 357 356 356 341 330 329 315 335 329 331 311 328 325 310 309 314 307 305 303 288
140 134 129 116 105 104 102 110 97 100 93 86 84 80 80 88 85 77 68 58 54 49 46 50 53 50 48 42 40 42 49 41 42 27 31 35 37 40 38 25 33 26 22 26 23 21 20 13 8 356 8 6 5 358 1 352 347 349 359 348 340 353 343 323 338 338 347 328 352 337 320 313 317 323 316 313 320 306 312 310 313 305 302 305 309
148 135 136 126 123 123 127 118 111 95 89 99 105 99 92 88 79 68 62 60 52 48 44 50 55 57 51 50 48 44 48 54 47 42 29 39 36 30 43 27 22 30 22 19 21 20 17 11 11 3 1 6 358 5 359 357 347 356 354 344 340 338 339 330 335 332 335 319 351 327 316 303 302 304 312 312 307 313 310 309 301 306 308 309 308
157 152 144 140 140 144 124 123 124 108 116 118 107 111 99 81 73 67 63 56 48 44 56 49 56 58 58 54 51 51 47 54 49 51 44 41 38 29 27 34 29 22 23 20 11 18 13 11 12 16 3 0 348 4 355 357 349 350 352 344 341 338 340 335 333 331 337 328 342 324 318 308 298 299 290 298 303 304 307 305 304 312 315 308 304
158 149 154 147 149 135 129 126 108 124 127 106 108 102 102 90 77 72 63 58 57 54 54 57 56 54 51 50 50 45 43 35 46 37 37 23 32 23 21 18 27 23 18 13 11 14 9 6 4 13 7 360 346 1 354 351 350 344 348 344 350 342 343 339 329 335 330 332 331 324 323 317 315 304 308 302 301 305 303 308 311 311 305 299 304
157 141 142 141 141 139 126 121 135 127 131 135 122 123 111 99 85 66 70 59 61 63 62 59 55 53 54 50 43 42 30 31 25 27 15 15 8 18 7 15 7 19 12 15 8 12 7 5 1 3 8 358 350 353 347 341 346 343 346 348 341 342 340 341 333 330 330 327 324 323 320 322 319 323 317 317 309 305 304 306 309 312 309 311 309
161 147 141 144 142 148 155 155 149 152 158 174 157 167 138 163 150 121 74 75 67 64 60 62 56 47 47 42 39 31 24 22 15 15 8 15 7 14 10 11 5 12 2 15 9 6 4 4 360 354 1 353 349 343 345 340 346 338 346 346 345 344 341 339 330 334 332 329 327 330 326 327 330 322 321 324 318 310 309 306 307 307 307 308 307
163 161 157 147 152 172 174 182 184 182 188 183 189 189 194 194 201 178 135 84 74 67 66 57 55 54 44 29 32 23 18 10 11 8 6 13 7 15 9 5 9 7 6 360 13 355 3 357 354 352 353 349 348 342 341 340 340 337 345 344 345 342 343 344 335 341 337 330 332 332 327 324 321 317 325 320 317 313 309 305 304 307 305 303 308
173 170 161 160 173 179 188 197 198 197 196 193 194 196 199 204 213 203 118 100 73 62 56 67 59 50 27 21 17 14 13 6 4 7 11 8 7 11 4 7 3 0 6 355 1 354 357 354 352 350 348 347 343 341 338 338 346 327 336 337 340 342 347 341 332 340 332 331 332 325 319 321 319 325 319 318 314 311 307 306 307 313 308 307 306
179 176 173 172 175 184 192 200 201 192 195 195 198 201 201 209 207 230 120 72 48 48 40 64 75 48 34 10 7 1 6 2 6 6 9 9 5 10 4 8 1 358 360 360 355 350 353 346 348 344 348 343 339 339 337 335 349 334 330 344 334 334 338 331 326 331 324 322 326 319 321 320 315 318 316 309 312 312 313 312 312 309 305 303 305
183 180 180 172 177 189 194 199 203 195 192 194 199 205 207 208 203 214 245 114 310 315 229 33 55 47 23 18 6 358 355 0 7 9 5 2 4 3 9 3 5 359 357 358 350 343 351 344 343 346 350 342 341 338 335 343 350 342 342 345 331 329 332 326 321 323 318 323 323 315 317 307 317 314 311 311 311 311 309 310 310 309 308 305 305
183 182 181 177 176 190 195 202 206 202 194 196 203 201 207 220 203 241 287 294 281 279 278 302 47 32 42 18 11 6 359 360 2 8 359 355 356 357 6 6 9 359 356 353 348 344 349 344 343 355 348 345 345 344 338 350 348 336 338 336 329 341 328 323 324 320 319 320 313 318 312 313 313 310 312 313 308 307 303 302 304 304 306 307 309
184 187 183 182 179 189 198 201 209 208 200 199 207 204 200 208 216 233 258 260 261 268 275 262 230 328 24 17 12 6 3 0 358 356 350 343 348 356 3 6 3 360 355 349 344 348 343 347 342 346 348 344 348 346 343 347 339 333 334 330 330 338 326 325 323 317 321 319 315 317 315 313 310 315 310 309 308 304 303 302 300 300 305 302 303
186 187 186 188 184 187 199 201 205 207 213 200 202 204 197 222 246 258 251 265 268 268 272 255 268 290 337 4 11 2 350 354 354 350 347 345 0 358 4 4 2 357 352 348 333 343 341 344 341 335 344 343 342 344 338 333 332 328 328 320 329 329 322 323 322 324 320 316 314 315 316 312 315 312 311 307 302 303 298 298 297 296 296 293 297
188 188 192 189 186 191 200 206 205 206 212 215 200 205 216 217 233 245 261 268 278 282 277 262 246 248 276 345 349 340 336 337 351 343 335 344 355 360 2 355 350 342 348 345 332 350 347 346 338 333 336 337 332 335 325 329 328 323 324 319 321 324 321 321 323 325 320 317 316 313 311 307 311 310 308 302 303 302 301 301 301 299 297 294 292
191 191 194 192 189 196 198 206 211 207 204 207 217 222 222 229 239 246 253 257 261 263 262 261 249 246 251 294 302 314 328 342 350 345 342 348 352 354 357 345 343 333 342 336 335 342 348 341 341 340 334 338 331 327 324 323 320 319 322 321 323 315 319 319 324 324 318 315 315 315 313 309 312 309 304 306 302 298 299 301 300 300 296 295 294
191 189 195 197 193 199 202 206 216 211 208 216 213 215 229 241 245 246 250 256 256 257 261 259 255 252 244 272 304 282 292 300 323 331 320 333 339 338 342 332 329 332 334 333 331 337 332 329 327 330 330 326 328 318 322 314 313 314 316 316 312 315 315 320 317 313 311 312 315 313 312 315 316 309 307 304 298 299 304 299 293 294 293 294 296
195 194 195 197 200 203 207 208 216 219 223 220 219 237 245 240 246 249 248 254 258 257 258 259 247 241 246 260 263 277 277 304 318 319 319 320 323 329 324 321 322 324 324 325 321 326 302 304 303 299 302 304 302 311 301 297 294 301 302 301 306 304 307 306 308 302 303 303 307 303 308 310 312 306 303 302 306 308 300 299 300 300 299 299 297
192 196 199 201 206 205 213 218 214 218 223 231 243 242 245 247 250 249 256 258 261 263 259 258 250 240 239 247 259 271 279 278 293 304 310 314 313 312 311 310 311 319 312 310 312 299 295 291 291 289 288 288 285 289 285 274 276 281 289 292 288 295 296 295 296 300 300 302 297 300 302 306 305 302 300 299 300 296 303 301 299 297 298 298 295
199 201 201 204 209 211 214 219 227 227 225 225 230 238 239 243 247 251 252 259 263 259 256 247 241 240 238 248 259 271 278 289 299 308 309 307 305 300 302 299 305 306 303 300 295 293 291 291 287 291 294 294 295 294 287 282 283 287 285 287 291 289 290 291 293 297 304 303 302 301 298 298 300 299 301 302 299 301 300 299 299 301 298 297 299
202 203 205 208 210 214 216 222 228 232 230 226 235 241 242 241 244 248 256 257 262 258 257 250 244 244 240 249 257 271 282 290 292 299 298 300 299 298 296 297 295 292 296 297 292 289 286 286 292 298 304 302 302 301 301 298 296 293 292 289 285 285 287 287 288 293 300 300 300 298 297 297 295 294 296 297 302 302 299 301 303 302 300 300 301
202 202 205 212 217 220 224 229 235 233 238 233 229 238 247 249 243 240 252 253 253 255 248 245 242 242 250 255 266 282 293 296 299 300 299 297 297 295 297 291 291 291 291 288 290 289 290 293 296 307 308 306 302 299 297 297 298 296 291 286 281 280 280 290 293 296 299 300 300 298 296 294 293 292 292 295 298 301 302 298 299 300 300 301 301
203 204 206 211 218 223 225 225 233 240 235 245 253 257 254 252 250 242 249 248 244 239 241 239 239 247 261 284 300 306 305 303 301 298 296 293 293 295 291 296 300 296 292 291 292 298 298 298 301 301 300 302 303 300 295 290 289 289 288 286 285 283 283 289 291 291 294 297 298 298 296 293 288 286 287 290 295 296 295 297 297 296 297 300 299
205 203 208 214 218 221 225 229 228 229 230 240 250 257 263 259 258 253 245 224 211 219 239 240 238 244 258 289 302 302 304 306 301 295 292 289 288 287 286 285 286 287 292 296 305 309 305 296 297 297 297 296 294 292 291 288 291 294 290 287 287 285 281 282 287 286 287 289 291 292 291 289 286 282 281 282 279 278 283 288 288 290 295 296 298
216 216 215 221 222 222 224 223 222 230 238 249 258 258 245 244 246 249 240 216 200 215 236 241 239 256 285 298 294 297 301 302 292 292 290 287 286 286 285 289 290 291 291 296 299 303 304 302 300 299 299 298 296 294 292 291 298 296 296 292 288 285 285 284 281 282 282 284 288 290 289 289 288 277 264 245 248 258 271 274 275 283 287 293 295
228 225 223 222 227 224 218 215 227 239 254 264 265 264 262 252 246 238 216 204 193 203 236 243 262 285 289 293 302 300 296 300 294 291 296 300 302 303 301 294 297 302 305 305 305 302 300 300 301 303 303 303 300 295 294 294 289 293 298 297 293 289 286 283 282 281 282 280 280 282 279 278 266 252 237 221 224 233 235 243 267 274 281 285 290
241 234 229 223 223 222 215 223 237 258 267 272 271 275 278 278 272 243 216 177 184 188 222 268 294 301 307 301 294 298 300 297 306 303 304 305 313 316 308 301 302 304 304 304 305 305 305 306 307 307 308 305 302 301 311 307 298 290 286 290 290 287 283 281 279 279 279 281 279 282 287 285 277 248 227 221 227 222 219 230 232 241 255 266 280
266 235 213 214 219 216 226 238 260 264 263 269 283 283 267 268 229 220 162 164 155 211 281 287 303 307 295 299 306 305 302 306 307 313 316 319 315 310 308 308 309 310 310 311 306 306 310 311 311 311 311 311 308 314 317 305 295 291 287 287 293 287 283 281 278 277 279 281 284 285 285 286 280 277 278 269 236 215 218 216 219 227 229 238 242
307 269 221 209 225 197 166 180 216 104 49 64 57 45 46 61 117 142 117 121 147 220 287 301 309 300 301 307 300 300 308 314 320 319 317 309 309 308 313 319 317 316 310 306 311 311 312 317 316 317 316 313 313 317 315 305 302 301 299 296 295 290 284 279 277 277 277 279 283 286 286 283 284 283 275 269 273 264 211 209 216 215 224 230 234
67 81 96 103 106 103 101 97 86 82 72 68 62 68 78 83 95 107 98 115 283 183 297 310 307 303 305 302 308 318 319 319 316 313 312 313 316 324 326 320 316 313 312 312 313 314 315 318 318 315 314 315 311 318 316 311 307 307 304 302 296 289 280 275 274 274 275 277 279 284 287 286 287 287 284 277 270 267 272 255 236 239 256 246 232
87 89 90 96 100 104 104 114 103 92 103 108 102 109 116 118 122 99 80 33 355 320 301 298 295 299 307 318 323 322 318 316 317 321 323 323 329 330 325 323 321 319 318 320 317 317 319 314 315 317 317 316 315 328 316 308 308 309 313 305 298 291 284 279 277 276 282 283 284 287 287 286 286 284 284 287 282 273 269 265 264 268 267 270 275
98 104 108 114 112 112 109 103 114 118 98 89 92 103 101 88 62 54 51 11 327 304 294 293 308 319 324 327 319 317 321 329 333 333 328 331 334 329 326 328 326 320 320 316 315 318 318 318 319 322 321 323 325 327 320 318 319 324 320 313 317 307 298 291 286 287 288 287 288 290 290 289 289 287 287 281 267 266 266 265 269 269 270 273 274
109 107 104 97 103 101 94 96 86 80 88 81 85 72 59 52 52 41 343 325 309 296 299 322 327 324 322 322 331 337 345 342 338 330 333 336 332 330 330 334 325 324 320 319 321 320 323 322 324 324 325 327 323 328 338 332 337 340 335 331 319 311 304 299 294 292 292 291 291 292 293 295 292 291 294 290 248 228 258 265 266 270 273 276 275
115 113 114 102 89 93 95 94 100 90 85 95 87 87 65 12 345 338 322 305 309 323 347 339 324 328 339 355 360 357 351 344 335 338 340 335 332 330 330 333 326 324 321 323 325 325 326 326 325 324 327 322 318 331 341 352 352 353 343 336 329 321 315 307 302 299 297 297 293 294 290 289 290 289 292 292 222 213 251 264 266 272 274 273 273
114 108 102 106 100 85 102 101 101 101 80 68 54 43 266 316 325 323 319 326 337 343 331 340 350 8 12 17 10 4 354 345 342 346 341 335 333 332 330 330 327 323 326 329 332 327 328 323 324 322 320 318 323 332 353 7 6 13 8 348 337 329 324 325 322 317 312 304 299 294 290 289 288 286 280 267 218 217 258 265 269 273 275 273 274
126 114 100 98 121 149 146 115 103 93 86 72 33 303 329 302 335 330 333 342 358 357 5 23 33 26 22 14 16 10 2 352 347 345 339 334 331 332 335 333 332 331 335 332 330 328 324 325 326 325 326 329 331 335 343 5 33 27 16 358 345 339 333 331 327 318 311 305 302 297 292 289 291 282 269 256 223 218 244 259 266 267 268 272 271
140 115 128 182 156 171 73 98 101 88 73 62 347 336 304 354 335 330 5 30 41 47 43 43 29 27 20 18 18 12 358 352 349 343 337 333 340 341 340 338 336 338 334 329 330 326 325 327 330 331 330 333 337 337 336 25 35 21 13 6 346 341 333 327 320 311 308 308 305 303 301 302 313 320 289 258 244 234 234 254 263 263 263 280 308
89 99 158 200 187 122 156 131 94 90 111 172 236 286 323 14 19 54 57 59 63 58 46 36 25 26 24 18 17 9 352 349 346 345 343 344 349 347 344 340 339 336 331 331 332 331 332 332 333 334 337 335 340 339 337 6 31 13 8 2 350 335 332 324 315 313 312 305 304 302 303 309 340 337 332 310 286 265 247 247 260 259 267 279 277
167 175 143 231 238 218 139 102 96 71 20 30 105 146 102 89 82 75 71 67 61 49 42 39 29 27 23 9 6 4 359 356 355 353 352 350 352 348 343 342 340 335 334 336 337 338 337 336 335 340 340 338 338 336 346 359 22 14 3 352 333 326 326 322 319 315 310 305 304 306 305 322 329 318 307 304 304 295 275 271 267 265 264 265 268
148 129 114 110 283 272 109 93 71 77 93 128 176 133 96 94 88 83 78 74 63 51 41 40 36 26 12 4 1 3 7 6 1 358 354 351 353 348 343 345 342 339 342 341 342 341 341 338 340 341 339 338 338 338 336 354 7 3 352 337 330 326 321 318 316 309 309 309 308 313 315 311 302 299 296 292 287 280 265 266 270 262 258 256 261
149 123 117 248 321 45 63 83 69 75 69 87 94 102 100 92 86 84 77 69 63 54 43 32 23 22 11 7 9 8 4 12 1 357 353 351 352 348 345 346 345 347 348 346 344 346 343 343 344 340 338 337 339 336 334 342 348 352 346 333 328 320 312 310 312 310 307 307 307 302 297 297 295 290 285 282 276 268 258 250 247 249 253 260 255
156 136 101 78 90 92 94 87 78 77 80 79 88 97 97 94 91 84 75 67 54 49 43 28 23 21 21 11 13 9 360 7 3 354 354 354 353 351 350 349 351 355 355 351 348 348 347 348 343 340 338 337 337 337 336 340 347 340 331 328 322 315 313 314 308 302 302 299 299 304 304 299 295 290 284 283 285 280 264 244 234 235 256 249 240
87 88 118 117 110 102 98 95 91 87 89 90 91 90 91 92 87 80 70 58 49 38 36 30 22 18 21 16 11 15 351 359 359 354 352 351 358 355 355 356 360 1 359 354 352 349 352 350 343 341 341 341 339 340 341 345 344 335 331 329 326 324 322 318 317 315 313 311 308 306 302 296 287 282 274 265 268 274 272 268 251 233 242 244 247
96 106 107 108 108 107 108 105 98 96 93 93 90 87 84 83 80 72 64 61 53 36 30 28 25 24 19 8 6 10 350 356 355 353 350 352 359 356 357 1 5 7 359 357 353 356 358 350 345 343 342 342 341 342 345 345 337 334 331 329 328 327 327 325 319 318 317 312 307 301 294 294 303 302 300 292 281 274 262 255 249 242 241 217 223
109 106 110 107 114 113 110 107 105 104 101 96 93 90 84 76 69 61 49 46 43 41 35 32 25 27 16 4 0 2 360 350 349 352 354 356 357 349 358 356 20 17 8 1 354 359 358 352 347 345 344 341 340 342 343 335 326 323 324 328 330 331 329 326 322 317 313 310 303 302 302 307 308 309 310 306 301 296 276 265 259 274 252 225 235
108 109 107 108 111 116 115 112 111 112 108 104 99 91 83 74 61 48 44 38 32 28 32 32 24 29 14 358 357 359 355 350 353 353 348 352 55 118 23 10 356 37 38 19 6 359 350 348 348 345 349 343 340 336 330 328 327 327 328 329 329 326 321 318 315 313 310 310 309 310 312 313 310 310 311 317 315 316 314 305 286 256 248 240 242
120 117 116 115 117 119 120 119 118 118 113 106 98 90 81 67 59 50 41 35 28 21 24 24 20 22 23 349 352 356 354 352 353 353 348 349 343 81 135 102 76 67 31 11 1 340 330 341 350 344 344 347 341 334 330 328 329 332 334 333 329 325 321 318 313 314 316 313 315 316 319 318 313 314 317 321 321 317 310 302 290 284 299 303 258